Regional Weather Roundup
Issued by NWS

Home | Current Version | Previous Version | Graphics & Text | Print | Product List | Glossary On
Versions: 1 2 3 4 5 6 7 8 9 10 11 12 13 14 15 16 17 18 19 20 21 22 23 24 25 26 27 28 29 30 31 32 33 34 35 36 37 38 39 40 41 42 43 44 45 46 47 48 49 50
000
ASUS43 KFSD 162302
RWRSD

WEATHER ROUNDUP FOR SOUTH DAKOTA
NATIONAL WEATHER SERVICE SIOUX FALLS SD
600 PM CDT MON OCT 16 2017

NOTE: "FAIR" INDICATES FEW OR NO CLOUDS BELOW 12,000 FEET WITH NO
SIGNIFICANT WEATHER AND/OR OBSTRUCTIONS TO VISIBILITY.


SDZ001>005-009-010-012>017-170000-
NORTHWEST AND NORTH CENTRAL SOUTH DAKOTA

CITY           SKY/WX    TMP DP  RH WIND       PRES   REMARKS
BUFFALO          N/A     68  26  20 W18       29.98F
FAITH            N/A     70  30  22 NW13      30.02S
MOBRIDGE       CLEAR     72  39  30 NW10      29.93S
$$

SDZ012>016-024>037-041>051-057-063-072>074-170000-
SOUTHWEST AND SOUTH CENTRAL SOUTH DAKOTA

CITY           SKY/WX    TMP DP  RH WIND       PRES   REMARKS
RAPID CTY ARPT SUNNY     72  26  18 NW14      30.06R
PIERRE         CLEAR     72  40  31 NW5       29.98S
CUSTER         SUNNY     63  19  18 W9        30.18R
ELLSWORTH AFB  SUNNY     72  25  17 N16       30.05R
PHILIP         CLEAR     75  29  18 NW9       30.01S
PINE RIDGE     SUNNY     70  27  20 NW5       30.09R
SPEARFISH      FAIR      68  28  22 W12       30.10F
WINNER         FAIR      71  42  35 N6        30.03R
$$

SDZ004>011-016>023-039-040-170000-
NORTHEAST SOUTH DAKOTA

CITY           SKY/WX    TMP DP  RH WIND       PRES   REMARKS
ABERDEEN       CLEAR     69  42  37 SW6       29.94S
WATERTOWN      CLOUDY    61  43  51 SW9       29.96F
BROOKINGS      CLOUDY    66  41  40 W8        30.00S
SISSETON         N/A     66  42  41 SW15      29.92S
$$

SDZ017-020-022-023-036>040-048>070-170000-
SOUTHEAST SOUTH DAKOTA

CITY           SKY/WX    TMP DP  RH WIND       PRES   REMARKS
SIOUX FALLS    PTCLDY    72  41  32 SW6       30.00S
HURON          CLEAR     64  41  42 SW5       29.99S
MITCHELL       CLEAR     70  41  34 W7        30.00S
YANKTON        CLEAR     74  40  29 SW8       30.00F
$$

ABBREVIATIONS USED IN REMARKS
   TC - TEMPERATURE IN CELSIUS
  WCI - WIND CHILL INDEX
   HX - HEAT INDEX
  VSB - VISIBILITY





USA.gov is the U.S. government's official web portal to all federal, state and local government web resources and services.